TimeEST,TemperatureF,Dew PointF,Humidity,Sea Level PressureIn,VisibilityMPH,Wind Direction,Wind SpeedMPH,Gust SpeedMPH,PrecipitationIn,Events,Conditions,WindDirDegrees,DateUTC
12:15 AM,32.5,30.9,94,30.06,10.0,NNW,6.9,-,N/A,Rain,Light Rain,340,2013-01-18 05:15:00
12:35 AM,32.5,30.9,94,30.08,10.0,North,9.2,-,N/A,Rain,Light Rain,350,2013-01-18 05:35:00
12:55 AM,32.5,30.9,94,30.11,10.0,NNW,5.8,-,N/A,,Overcast,340,2013-01-18 05:55:00
1:15 AM,32.5,30.9,94,30.14,5.0,NNW,4.6,-,0.01,Rain,Light Rain,330,2013-01-18 06:15:00
1:35 AM,32.5,30.9,94,30.14,7.0,NNW,3.5,-,0.02,Rain,Rain,340,2013-01-18 06:35:00
1:55 AM,32.5,30.9,94,30.13,10.0,NNW,3.5,-,0.02,Rain,Light Rain,340,2013-01-18 06:55:00
2:15 AM,32.5,30.9,94,30.15,10.0,Calm,Calm,-,N/A,Rain,Light Rain,0,2013-01-18 07:15:00
2:35 AM,32.5,30.7,93,30.17,10.0,NW,4.6,-,N/A,,Overcast,320,2013-01-18 07:35:00
2:55 AM,32.5,31.1,94,30.20,10.0,NNW,4.6,-,N/A,,Overcast,330,2013-01-18 07:55:00
3:15 AM,32.9,31.5,94,30.18,10.0,NNW,6.9,-,N/A,,Overcast,340,2013-01-18 08:15:00
3:35 AM,33.1,31.5,94,30.19,10.0,NW,4.6,-,N/A,,Overcast,320,2013-01-18 08:35:00
3:55 AM,33.1,31.5,94,30.20,10.0,NNW,3.5,-,N/A,,Overcast,330,2013-01-18 08:55:00
4:15 AM,32.5,30.9,94,30.22,10.0,Calm,Calm,-,N/A,,Overcast,0,2013-01-18 09:15:00
4:35 AM,32.5,30.7,93,30.23,10.0,NW,3.5,-,N/A,,Overcast,310,2013-01-18 09:35:00
4:55 AM,32.5,30.7,93,30.24,7.0,Calm,Calm,-,N/A,,Overcast,0,2013-01-18 09:55:00
5:15 AM,32.5,30.7,93,30.25,7.0,WNW,3.5,-,N/A,,Overcast,300,2013-01-18 10:15:00
5:35 AM,32.5,30.7,93,30.27,7.0,NNW,4.6,-,N/A,,Mostly Cloudy,330,2013-01-18 10:35:00
5:55 AM,32.5,30.7,93,30.28,7.0,Calm,Calm,-,N/A,,Overcast,0,2013-01-18 10:55:00
6:15 AM,32.5,30.7,93,30.29,7.0,Calm,Calm,-,N/A,,Mostly Cloudy,0,2013-01-18 11:15:00
6:35 AM,32.5,30.7,93,30.30,7.0,Calm,Calm,-,N/A,,Scattered Clouds,0,2013-01-18 11:35:00
6:55 AM,32.5,30.7,93,30.31,5.0,Calm,Calm,-,N/A,,Mostly Cloudy,0,2013-01-18 11:55:00
7:15 AM,32.5,30.9,94,30.33,4.0,NW,3.5,-,N/A,,Overcast,320,2013-01-18 12:15:00
7:35 AM,32.5,30.9,94,30.34,2.5,Calm,Calm,-,N/A,,Overcast,0,2013-01-18 12:35:00
7:55 AM,32.5,30.9,94,30.36,5.0,Calm,Calm,-,N/A,,Overcast,0,2013-01-18 12:55:00
8:15 AM,32.5,30.7,93,30.38,10.0,WNW,3.5,-,N/A,,Overcast,300,2013-01-18 13:15:00
8:35 AM,32.5,30.6,92,30.40,10.0,NW,3.5,-,N/A,,Overcast,320,2013-01-18 13:35:00
8:55 AM,32.7,30.9,93,30.41,10.0,NNW,3.5,-,N/A,,Scattered Clouds,330,2013-01-18 13:55:00
9:15 AM,35.1,32.2,89,30.42,10.0,North,4.6,-,N/A,,Scattered Clouds,360,2013-01-18 14:15:00
9:35 AM,36.0,32.2,86,30.44,10.0,North,3.5,-,N/A,,Clear,350,2013-01-18 14:35:00
9:55 AM,36.9,32.0,83,30.45,10.0,North,9.2,-,N/A,,Clear,350,2013-01-18 14:55:00
10:15 AM,37.6,32.0,80,30.46,10.0,North,6.9,-,N/A,,Clear,350,2013-01-18 15:15:00
10:35 AM,37.9,31.8,79,30.46,10.0,North,8.1,-,N/A,,Clear,350,2013-01-18 15:35:00
10:55 AM,39.0,31.8,75,30.47,10.0,NNW,6.9,-,N/A,,Clear,340,2013-01-18 15:55:00
11:15 AM,40.8,33.1,74,30.46,10.0,North,11.5,-,N/A,,Clear,360,2013-01-18 16:15:00
11:35 AM,41.5,32.5,70,30.46,10.0,North,8.1,16.1,N/A,,Scattered Clouds,10,2013-01-18 16:35:00
11:55 AM,42.3,31.1,65,30.45,10.0,North,12.7,16.1,N/A,,Scattered Clouds,10,2013-01-18 16:55:00
12:15 PM,42.8,29.5,59,30.45,10.0,North,11.5,-,N/A,,Scattered Clouds,360,2013-01-18 17:15:00
12:35 PM,42.8,29.5,59,30.44,10.0,North,6.9,-,N/A,,Clear,350,2013-01-18 17:35:00
12:55 PM,42.8,29.3,59,30.45,10.0,North,11.5,-,N/A,,Scattered Clouds,360,2013-01-18 17:55:00
1:15 PM,45.1,31.6,59,30.45,10.0,North,9.2,-,N/A,,Scattered Clouds,10,2013-01-18 18:15:00
1:35 PM,43.9,29.8,58,30.45,10.0,North,10.4,-,N/A,,Scattered Clouds,10,2013-01-18 18:35:00
1:55 PM,45.1,28.8,53,30.46,10.0,North,5.8,-,N/A,,Clear,350,2013-01-18 18:55:00
2:15 PM,45.1,27.9,51,30.47,10.0,North,11.5,17.3,N/A,,Clear,10,2013-01-18 19:15:00
2:35 PM,45.1,27.3,50,30.48,10.0,North,6.9,-,N/A,,Clear,350,2013-01-18 19:35:00
2:55 PM,45.1,28.0,51,30.48,10.0,NNE,8.1,-,N/A,,Clear,20,2013-01-18 19:55:00
3:15 PM,44.4,26.8,50,30.48,10.0,North,5.8,-,N/A,,Clear,360,2013-01-18 20:15:00
3:35 PM,45.1,27.3,50,30.49,10.0,North,6.9,-,N/A,,Clear,10,2013-01-18 20:35:00
3:55 PM,44.6,25.2,46,30.49,10.0,North,4.6,-,N/A,,Clear,360,2013-01-18 20:55:00
4:15 PM,42.8,24.6,49,30.50,10.0,North,5.8,-,N/A,,Clear,10,2013-01-18 21:15:00
4:35 PM,40.3,23.0,50,30.50,10.0,North,3.5,-,N/A,,Clear,360,2013-01-18 21:35:00
4:55 PM,39.2,23.7,54,30.51,10.0,North,4.6,-,N/A,,Clear,10,2013-01-18 21:55:00
5:15 PM,37.8,26.4,64,30.51,10.0,Calm,Calm,-,N/A,,Clear,0,2013-01-18 22:15:00
5:35 PM,36.5,25.9,65,30.52,10.0,Calm,Calm,-,N/A,,Clear,0,2013-01-18 22:35:00
5:55 PM,35.1,27.3,73,30.53,10.0,Calm,Calm,-,N/A,,Clear,0,2013-01-18 22:55:00
6:15 PM,35.1,26.2,70,30.54,10.0,Calm,Calm,-,N/A,,Clear,0,2013-01-18 23:15:00
6:55 PM,32.5,28.0,83,30.55,10.0,Calm,Calm,-,N/A,,Clear,0,2013-01-18 23:55:00
7:15 PM,32.5,27.5,82,30.55,10.0,Calm,Calm,-,N/A,,Clear,0,2013-01-19 00:15:00
7:35 PM,32.0,27.9,85,30.55,10.0,Calm,Calm,-,N/A,,Clear,0,2013-01-19 00:35:00
7:55 PM,30.2,26.4,86,30.55,10.0,Calm,Calm,-,N/A,,Clear,0,2013-01-19 00:55:00
8:15 PM,30.2,26.6,86,30.55,10.0,Calm,Calm,-,N/A,,Clear,0,2013-01-19 01:15:00
8:35 PM,30.2,27.3,89,30.56,10.0,Calm,Calm,-,N/A,,Clear,0,2013-01-19 01:35:00
8:55 PM,30.2,27.1,88,30.55,10.0,Calm,Calm,-,N/A,,Clear,0,2013-01-19 01:55:00
9:15 PM,30.2,27.5,90,30.56,10.0,Calm,Calm,-,N/A,,Clear,0,2013-01-19 02:15:00
9:35 PM,28.8,26.2,90,30.56,10.0,Calm,Calm,-,N/A,,Clear,0,2013-01-19 02:35:00
9:55 PM,29.3,26.8,90,30.55,10.0,Calm,Calm,-,N/A,,Clear,0,2013-01-19 02:55:00
10:15 PM,27.9,25.3,90,30.55,10.0,Calm,Calm,-,N/A,,Clear,0,2013-01-19 03:15:00
10:35 PM,27.9,25.3,90,30.54,10.0,Calm,Calm,-,N/A,,Clear,0,2013-01-19 03:35:00
10:55 PM,27.9,25.3,90,30.53,10.0,Calm,Calm,-,N/A,,Clear,0,2013-01-19 03:55:00
11:15 PM,26.6,24.1,90,30.53,10.0,Calm,Calm,-,N/A,,Clear,0,2013-01-19 04:15:00
11:35 PM,26.6,24.4,92,30.53,10.0,Calm,Calm,-,N/A,,Clear,0,2013-01-19 04:35:00
11:55 PM,26.6,24.4,92,30.52,10.0,Calm,Calm,-,N/A,,Clear,0,2013-01-19 04:55:00